Terminal Aerodrome Forecast
Issued by NWS

Home | Current Version | Previous Version | Text Only | Print | Product List | Glossary On
Versions: 1 2 3 4 5 6 7 8 9 10 11 12 13 14 15 16 17 18
000
FTUS43 KLSX 160800 AAA
TAFUIN
TAF AMD
KUIN 160811Z 1608/1706 29016G26KT P6SM VCSH OVC007
      TEMPO 1608/1610 3SM -RA BR OVC005
     FM161200 30015G25KT P6SM OVC007
     FM161600 30014G24KT P6SM OVC015
     FM162100 30012G24KT P6SM OVC025=

USA.gov is the U.S. government's official web portal to all federal, state and local government web resources and services.